User: anonymous   Login
Location: Berkeley
(37.8716°N, 122.2727°W)
Time: 17:46:12
(UTC-08:00)
Language:

AO-91 - Orbit

View from above orbital plane
View from above orbital plane
View from above satellite
View from above satellite

Ground track
Ground track

The orbit data is extracted from the following two-line orbital elements,

1 43017U 17073E   19316.85367245 +.00000896 +00000-0 +74580-4 0  9994
2 43017 097.7227 232.4516 0258755 039.4278 322.5452 14.78689252107002
Epoch (UTC): 12 November 2019 20:29:17
Eccentricity: 0.0258755
inclination: 97.7227°
perigee height: 452 km
apogee height: 815 km
right ascension of ascending node: 232.4516°
argument of perigee: 39.4278°
revolutions per day: 14.78689252
mean anomaly at epoch: 322.5452°
orbit number at epoch: 10700

The dashed part of the orbit path shows where the satellite is in the earth's shadow,  

DLR